Coldwater, MI

4:32 AM EDT on October 22, 2017 (GMT -0400)
Branch County Memorial

Weather History for KOEB - November, 2011

Change the Weather History Date:

Wednesday, November 2, 2011

  Actual Average (KJYM) Record (KJYM)
Temperature  
Mean Temperature 54 °F -  
Max Temperature 62 °F 56 °F 74 °F (1974)
Min Temperature 46 °F 36 °F 18 °F (2014)
Degree Days  
Heating Degree Days 11    
Growing Degree Days 4 (Base 50)    
Moisture  
Dew Point 36 °F    
Average Humidity 48    
Maximum Humidity 62    
Minimum Humidity 39    
Precipitation  
Precipitation 0.00 in - - ()
Sea Level Pressure  
Sea Level Pressure 30.10 in    
Wind  
Wind Speed 8 mph (SSW)    
Max Wind Speed 16 mph    
Max Gust Speed 24 mph    
Visibility 10 miles    
Events      
Averages and records for this station are not official NWS values.
T = Trace of Precipitation, MM = Missing Value Source: NWS Daily Summary

Daily Weather History Graph

Daily Weather History Graph

Search for Another Location

Airport or City:

Trip Planner

Search our weather history database for the weather conditions in past years. The results will help you decide how hot, cold, wet, or windy it might be!

Date:

Astronomy

Nov. 02, 2011 Rise Set
Actual Time 8:13 AM EDT 6:33 PM EDT
Civil Twilight 7:44 AM EDT 7:02 PM EDT
Nautical Twilight 7:11 AM EDT 7:35 PM EDT
Astronomical Twilight 6:39 AM EDT 8:07 PM EDT
Moon 2:32 PM EDT (11/2) 12:15 AM EDT (11/2)
Length of Visible Light 11h 17m
Length of Day
10h 19m
Waxing Crescent, 50% of the Moon is Illuminated
Nov 2
Waxing Crescent
Nov 2
First Quarter
Nov 10
Full
Nov 18
Last Quarter
Nov 25
New

Hourly Weather History & Observations

Time (EDT) Temp. Windchill Dew Point Humidity Pressure Visibility Wind Dir Wind Speed Gust Speed Precip Events Conditions
12:14 AM 53.6 °F - 35.6 °F 51% 30.13 in 10.0 mi South 6.9 mph 16.1 mph N/A   Clear
12:35 AM 51.8 °F - 35.6 °F 54% 30.13 in 10.0 mi South 9.2 mph 16.1 mph N/A   Clear
12:54 AM 51.8 °F - 35.6 °F 54% 30.13 in 10.0 mi South 9.2 mph - N/A   Clear
1:34 AM 50.0 °F - 35.6 °F 58% 30.14 in 10.0 mi South 6.9 mph - N/A   Clear
1:54 AM 50.0 °F - 35.6 °F 58% 30.14 in 10.0 mi South 6.9 mph - N/A   Clear
2:15 AM 50.0 °F - 35.6 °F 58% 30.14 in 10.0 mi South 6.9 mph - N/A   Clear
2:34 AM 50.0 °F - 35.6 °F 58% 30.13 in 10.0 mi South 6.9 mph - N/A   Clear
2:54 AM 50.0 °F - 35.6 °F 58% 30.14 in 10.0 mi SSW 6.9 mph - N/A   Clear
3:14 AM 48.2 °F - 33.8 °F 58% 30.14 in 10.0 mi SSW 4.6 mph - N/A   Clear
3:34 AM 46.4 °F 43.5 °F 33.8 °F 62% 30.15 in 10.0 mi SSW 5.8 mph - N/A   Clear
3:55 AM 48.2 °F - 33.8 °F 58% 30.15 in 10.0 mi SSW 4.6 mph - N/A   Clear
4:14 AM 50.0 °F - 33.8 °F 54% 30.15 in 10.0 mi SSW 6.9 mph - N/A   Clear
4:34 AM 50.0 °F - 33.8 °F 54% 30.15 in 10.0 mi SSW 6.9 mph - N/A   Clear
4:55 AM 50.0 °F - 33.8 °F 54% 30.15 in 10.0 mi South 5.8 mph - N/A   Clear
6:54 AM 50.0 °F - 33.8 °F 54% 30.16 in 10.0 mi SSW 8.1 mph - N/A   Clear
7:14 AM 50.0 °F - 33.8 °F 54% 30.15 in 10.0 mi SSW 5.8 mph - N/A   Clear
7:35 AM 50.0 °F - 32.0 °F 50% 30.15 in 10.0 mi South 5.8 mph - N/A   Clear
7:54 AM 48.2 °F - 32.0 °F 54% 30.14 in 10.0 mi SSW 5.8 mph - N/A   Clear
8:14 AM 48.2 °F - 33.8 °F 58% 30.15 in 10.0 mi SSW 4.6 mph - N/A   Clear
8:35 AM 48.2 °F - 33.8 °F 58% 30.16 in 10.0 mi South 5.8 mph - N/A   Clear
8:54 AM 48.2 °F - 33.8 °F 58% 30.16 in 10.0 mi South 5.8 mph - N/A   Clear
9:14 AM 50.0 °F - 33.8 °F 54% 30.16 in 10.0 mi South 6.9 mph - N/A   Clear
9:35 AM 50.0 °F - 33.8 °F 54% 30.16 in 10.0 mi SSW 5.8 mph - N/A   Clear
9:54 AM 50.0 °F - 33.8 °F 54% 30.16 in 10.0 mi SSW 8.1 mph - N/A   Clear
10:15 AM 51.8 °F - 33.8 °F 50% 30.15 in 10.0 mi SSW 9.2 mph - N/A   Clear
10:34 AM 53.6 °F - 33.8 °F 47% 30.14 in 10.0 mi SSW 9.2 mph 17.3 mph N/A   Clear
10:55 AM 55.4 °F - 33.8 °F 44% 30.14 in 10.0 mi SSW 12.7 mph 20.7 mph N/A   Clear
11:14 AM 55.4 °F - 33.8 °F 44% 30.14 in 10.0 mi SW 13.8 mph 20.7 mph N/A   Clear
11:34 AM 57.2 °F - 35.6 °F 44% 30.13 in 10.0 mi SSW 15.0 mph 19.6 mph N/A   Clear
11:55 AM 59.0 °F - 35.6 °F 42% 30.13 in 10.0 mi SSW 16.1 mph 24.2 mph N/A   Clear
12:14 PM 60.8 °F - 35.6 °F 39% 30.12 in 10.0 mi SSW 12.7 mph 21.9 mph N/A   Clear
12:34 PM 60.8 °F - 37.4 °F 42% 30.11 in 10.0 mi SSW 12.7 mph 18.4 mph N/A   Clear
12:55 PM 60.8 °F - 35.6 °F 39% 30.10 in 10.0 mi SW 11.5 mph 20.7 mph N/A   Clear
1:14 PM 60.8 °F - 37.4 °F 42% 30.10 in 10.0 mi SSW 10.4 mph 16.1 mph N/A   Clear
1:35 PM 62.6 °F - 37.4 °F 39% 30.08 in 10.0 mi SSW 9.2 mph 17.3 mph N/A   Clear
1:54 PM 62.6 °F - 37.4 °F 39% 30.08 in 10.0 mi SSW 15.0 mph 21.9 mph N/A   Clear
2:15 PM 60.8 °F - 37.4 °F 42% 30.07 in 10.0 mi SSW 10.4 mph 21.9 mph N/A   Clear
2:34 PM 60.8 °F - 37.4 °F 42% 30.06 in 10.0 mi SSW 10.4 mph - N/A   Clear
2:54 PM 62.6 °F - 37.4 °F 39% 30.05 in 10.0 mi South 9.2 mph 17.3 mph N/A   Clear
3:15 PM 62.6 °F - 37.4 °F 39% 30.04 in 10.0 mi South 10.4 mph - N/A   Clear
3:35 PM 62.6 °F - 37.4 °F 39% 30.03 in 10.0 mi South 12.7 mph 21.9 mph N/A   Clear
3:54 PM 62.6 °F - 37.4 °F 39% 30.03 in 10.0 mi South 10.4 mph 18.4 mph N/A   Clear
4:15 PM 62.6 °F - 37.4 °F 39% 30.02 in 10.0 mi SSW 13.8 mph 18.4 mph N/A   Clear
4:34 PM 62.6 °F - 37.4 °F 39% 30.02 in 10.0 mi SSW 9.2 mph - N/A   Clear
4:54 PM 60.8 °F - 37.4 °F 42% 30.02 in 10.0 mi SSW 10.4 mph 20.7 mph N/A   Clear
5:15 PM 60.8 °F - 37.4 °F 42% 30.02 in 10.0 mi SSW 6.9 mph - N/A   Clear
5:34 PM 60.8 °F - 37.4 °F 42% 30.01 in 10.0 mi SSW 8.1 mph - N/A   Mostly Cloudy
6:14 PM 60.8 °F - 37.4 °F 42% 30.01 in 10.0 mi South 9.2 mph - N/A   Clear
6:34 PM 60.8 °F - 37.4 °F 42% 30.01 in 10.0 mi South 9.2 mph - N/A   Clear
6:55 PM 59.0 °F - 37.4 °F 45% 30.02 in 10.0 mi South 6.9 mph - N/A   Clear
7:15 PM 59.0 °F - 37.4 °F 45% 30.02 in 10.0 mi SSW 8.1 mph - N/A   Clear
7:34 PM 59.0 °F - 37.4 °F 45% 30.02 in 10.0 mi South 8.1 mph - N/A   Clear
7:55 PM 59.0 °F - 37.4 °F 45% 30.02 in 10.0 mi South 5.8 mph - N/A   Clear
8:14 PM 59.0 °F - 37.4 °F 45% 30.02 in 10.0 mi South 6.9 mph - N/A   Clear
8:34 PM 59.0 °F - 37.4 °F 45% 30.01 in 10.0 mi South 6.9 mph - N/A   Clear
9:14 PM 59.0 °F - 37.4 °F 45% 29.99 in 10.0 mi South 8.1 mph - N/A   Clear
9:35 PM 57.2 °F - 37.4 °F 48% 29.99 in 10.0 mi South 6.9 mph - N/A   Clear
9:55 PM 57.2 °F - 37.4 °F 48% 29.99 in 10.0 mi SSW 6.9 mph - N/A   Clear
10:14 PM 57.2 °F - 39.2 °F 51% 29.99 in 10.0 mi SSW 10.4 mph - N/A   Clear
10:35 PM 57.2 °F - 39.2 °F 51% 29.98 in 10.0 mi South 8.1 mph 17.3 mph N/A   Clear
10:55 PM 55.4 °F - 39.2 °F 54% 30.00 in 10.0 mi SW 8.1 mph - N/A   Clear
11:14 PM 55.4 °F - 39.2 °F 54% 29.99 in 10.0 mi SW 6.9 mph - N/A   Clear
11:35 PM 55.4 °F - 39.2 °F 54% 29.99 in 10.0 mi SSW 6.9 mph - N/A   Clear
11:54 PM 55.4 °F - 39.2 °F 54% 29.99 in 10.0 mi SSW 4.6 mph - N/A   Clear